• MPC Preparation (Info)

  • MPEC 2014-D20 : 2014 DQ

    The following Minor Planet Electronic Circular may be linked-to from your own Web pages, but must not otherwise be redistributed electronically.

    A form allowing access to any MPEC is at the bottom of this page.


    Read MPEC 2014-D19 Read MPEC 2014-D21


    M.P.E.C. 2014-D20                                Issued 2014 Feb. 21, 20:12 UT
    
         The Minor Planet Electronic Circulars contain information on unusual
             minor planets and routine data on comets.  They are published
       on behalf of Commission 20 of the International Astronomical Union by the
              Minor Planet Center, Smithsonian Astrophysical Observatory,
                              Cambridge, MA 02138, U.S.A.
    
                 Prepared using the Tamkin Foundation Computer Network
    
                                  MPC@CFA.HARVARD.EDU
                URL https://www.minorplanetcenter.net/    ISSN 1523-6714
    
                                        2014 DQ
    
    Observations:
         K14D00Q* C2014 02 20.23910 07 54 23.906+25 48 25.91         20.1 wLED020F51
         K14D00Q  C2014 02 20.25034 07 54 30.364+25 48 46.74         20.4 wLED020F51
         K14D00Q  C2014 02 20.26208 07 54 37.074+25 49 08.31         20.2 wLED020F51
         K14D00Q  C2014 02 20.27482 07 54 44.281+25 49 31.16         20.4 wLED020F51
         K14D00Q KC2014 02 20.96600 08 01 36.17 +26 05 38.7                qED020J95
         K14D00Q KC2014 02 20.97302 08 01 40.04 +26 05 47.7                qED020J95
         K14D00Q KC2014 02 20.98252 08 01 45.23 +26 06 01.4          20.0 RqED020J95
         K14D00Q  C2014 02 21.13118808 03 18.47 +26 09 58.7          19.9 RtED020H01
         K14D00Q  C2014 02 21.13854608 03 22.38 +26 10 09.6          19.9 RtED020H01
         K14D00Q  C2014 02 21.14643608 03 26.54 +26 10 21.1          19.7 RtED020H01
         K14D00Q  C2014 02 21.15932408 03 33.33 +26 10 39.8          19.6 RtED020H01
         K14D00Q KC2014 02 21.23280 08 04 13.85 +26 12 08.9          19.5 RqED020G58
         K14D00Q KC2014 02 21.23597 08 04 15.49 +26 12 14.0          19.7 RqED020G58
         K14D00Q KC2014 02 21.23913 08 04 17.14 +26 12 18.1          19.6 RqED020G58
    
    Observer details:
    F51 Pan-STARRS 1, Haleakala.  Observers N. Primak, A. Schultz, T. Goggia,
        M. Willman.  Measurer PS1 Science Consortium.  1.8-m Ritchey-Chretien
        + CCD.
    G58 Chabot Space and Science Center, Oakland.  Observer G. McKeegan.  0.9-m
        f/4.5 Cassegrain + CCD.
    H01 Magdalena Ridge Observatory, Socorro.  Observer W. H. Ryan.  2.4-m f/8.9
        reflector + CCD.
    J95 Great Shefford.  Observer P. Birtwhistle.  0.40-m f/6.0 Schmidt-Cassegrain
        + CCD.
    
    Orbital elements:
    2014 DQ                                                  Earth MOID = 0.0130 AU
    Epoch 2013 Nov. 4.0 TT = JDT 2456600.5                  MPC
    M 322.92162              (2000.0)            P               Q
    n   0.74817340     Peri.  296.96609     +0.13421422     -0.99019492
    a   1.2017142      Node   145.25280     +0.93157628     +0.11274796
    e   0.2372374      Incl.    3.89711     +0.33786414     +0.08247373
    P   1.32           H   24.7           G   0.15           U   8
    Residuals in seconds of arc
    140220 F51  0.2+  0.1-    140220 J95  0.2+  0.4-    140221 H01  0.1+  0.1-
    140220 F51  0.1+  0.1-    140220 J95  0.1-  1.0+    140221 G58  0.0   1.0-
    140220 F51  0.1+  0.1+    140221 H01  0.3+  0.1-    140221 G58  0.2-  0.1-
    140220 F51  0.4-  0.0     140221 H01  0.4+  0.1-    140221 G58  0.2-  0.2-
    140220 J95  0.2-  0.2-    140221 H01  0.2+  0.2-
    
    Ephemeris:
    2014 DQ                  a,e,i = 1.20, 0.24, 4                   q = 0.9166
    Date    TT    R. A. (2000) Decl.     Delta      r     Elong.  Phase     V
    2014 01 22    00 41 24.4 -21 01 43   0.07444 0.9512    61.8   114.3    23.4
    ...
    2014 02 06    03 45 03.6 +00 44 07   0.03804 0.9913    96.8    81.0    20.4
    ...
    2014 02 14    06 27 51.2 +20 05 03   0.04382 1.0170   131.5    46.7    19.7
    ...
    2014 02 20    07 51 45.9 +25 41 44   0.06000 1.0377   143.7    34.3    20.1
    2014 02 21    08 01 57.5 +26 07 26   0.06325 1.0412   144.8    33.2    20.2
    2014 02 22    08 11 17.1 +26 27 49   0.06661 1.0448   145.6    32.3    20.3
    ...
    2014 02 28    08 53 22.6 +27 18 31   0.08870 1.0666   147.8    29.7    20.9
    ...
    2014 03 08    09 27 27.9 +26 54 49   0.1221  1.0967   146.8    29.7    21.6
    ...
    2014 03 23    10 04 45.9 +24 40 07   0.1949  1.1542   140.8    33.1    22.8
    
    A. U. Tomatic                (C) Copyright 2014 MPC           M.P.E.C. 2014-D20
    

    Read MPEC 2014-D19 Read MPEC 2014-D21


    MPEC number:

    Enter an MPEC number in one of the following forms:

    • 1997-B01 (the full form)
    • J97B01 (the packed version of the full form)
    • B01 (the abbreviated form)